Time,TemperatureF,DewpointF,PressureIn,WindDirection,WindDirectionDegrees,WindSpeedMPH,WindSpeedGustMPH,Humidity,HourlyPrecipIn,Conditions,Clouds,dailyrainin,SoftwareType,DateUTC
2013-03-21 00:00:00,28.4,3.6,29.83,NNE,15,4.9,8.3,34,0.00,,---,0.00,VWS V13.00,2013-03-21 08:00:00,
2013-03-21 00:05:00,28.6,3.8,29.83,NNW,329,0.0,15.4,34,0.00,,---,0.00,VWS V13.00,2013-03-21 08:05:00,
2013-03-21 00:10:00,28.6,3.8,29.83,NW,317,2.7,15.4,34,0.00,,---,0.00,VWS V13.00,2013-03-21 08:10:00,
2013-03-21 00:15:00,28.6,3.8,29.83,North,0,0.0,15.4,34,0.00,,---,0.00,VWS V13.00,2013-03-21 08:15:00,
2013-03-21 00:20:00,28.6,3.8,29.83,NE,43,0.0,0.0,34,0.00,,---,0.00,VWS V13.00,2013-03-21 08:20:00,
2013-03-21 00:25:00,28.6,3.8,29.83,NW,320,8.7,9.2,34,0.00,,---,0.00,VWS V13.00,2013-03-21 08:25:00,
2013-03-21 00:30:00,28.6,4.4,29.83,North,10,0.0,9.2,35,0.00,,---,0.00,VWS V13.00,2013-03-21 08:30:00,
2013-03-21 00:35:00,28.4,4.2,29.83,SW,236,0.0,9.2,35,0.00,,---,0.00,VWS V13.00,2013-03-21 08:35:00,
2013-03-21 00:40:00,28.6,5.0,29.83,NW,308,7.6,7.6,36,0.00,,---,0.00,VWS V13.00,2013-03-21 08:40:00,
2013-03-21 00:45:00,28.4,5.5,29.83,North,1,0.0,10.5,37,0.00,,---,0.00,VWS V13.00,2013-03-21 08:45:00,
2013-03-21 00:50:00,28.4,5.5,29.83,NNW,338,0.0,10.5,37,0.00,,---,0.00,VWS V13.00,2013-03-21 08:50:00,
2013-03-21 00:55:00,28.4,5.5,29.83,WSW,251,0.0,10.5,37,0.00,,---,0.00,VWS V13.00,2013-03-21 08:55:00,
2013-03-21 01:00:00,28.2,5.9,29.83,SW,234,0.0,10.5,38,0.00,,---,0.00,VWS V13.00,2013-03-21 09:00:00,
2013-03-21 01:05:00,28.2,7.0,29.83,WNW,285,0.0,4.9,40,0.00,,---,0.00,VWS V13.00,2013-03-21 09:05:00,
2013-03-21 01:10:00,28.4,7.2,29.83,WNW,291,5.8,10.5,40,0.00,,---,0.00,VWS V13.00,2013-03-21 09:10:00,
2013-03-21 01:15:00,28.4,7.7,29.83,WNW,290,0.0,10.5,41,0.00,,---,0.00,VWS V13.00,2013-03-21 09:15:00,
2013-03-21 01:20:00,28.4,7.7,29.83,West,280,0.0,0.0,41,0.00,,---,0.00,VWS V13.00,2013-03-21 09:20:00,
2013-03-21 01:25:00,28.4,7.7,29.83,ESE,103,0.0,5.4,41,0.00,,---,0.00,VWS V13.00,2013-03-21 09:25:00,
2013-03-21 01:30:00,28.4,7.7,29.83,SW,214,0.0,5.4,41,0.00,,---,0.00,VWS V13.00,2013-03-21 09:30:00,
2013-03-21 01:35:00,28.4,7.7,29.83,SE,128,0.0,5.4,41,0.00,,---,0.00,VWS V13.00,2013-03-21 09:35:00,
2013-03-21 01:40:00,28.2,7.6,29.83,SSE,154,0.0,0.0,41,0.00,,---,0.00,VWS V13.00,2013-03-21 09:40:00,
2013-03-21 01:45:00,28.2,7.6,29.83,SW,217,6.3,6.3,41,0.00,,---,0.00,VWS V13.00,2013-03-21 09:45:00,
2013-03-21 01:50:00,28.4,7.7,29.83,South,187,0.0,6.3,41,0.00,,---,0.00,VWS V13.00,2013-03-21 09:50:00,
2013-03-21 01:55:00,28.4,7.7,29.83,SSE,165,0.0,6.3,41,0.00,,---,0.00,VWS V13.00,2013-03-21 09:55:00,
2013-03-21 02:00:00,28.4,8.2,29.83,SSE,158,0.0,0.0,42,0.00,,---,0.00,VWS V13.00,2013-03-21 10:00:00,
2013-03-21 02:05:00,28.4,8.2,29.85,NW,310,0.0,0.0,42,0.00,,---,0.00,VWS V13.00,2013-03-21 10:05:00,
2013-03-21 02:10:00,28.4,8.2,29.85,WSW,237,0.0,8.3,42,0.00,,---,0.00,VWS V13.00,2013-03-21 10:10:00,
2013-03-21 02:15:00,28.4,8.2,29.85,SSW,212,0.0,8.3,42,0.00,,---,0.00,VWS V13.00,2013-03-21 10:15:00,
2013-03-21 02:20:00,28.4,8.2,29.85,SSW,207,0.0,0.0,42,0.00,,---,0.00,VWS V13.00,2013-03-21 10:20:00,
2013-03-21 02:25:00,28.4,8.2,29.85,NW,315,0.0,0.0,42,0.00,,---,0.00,VWS V13.00,2013-03-21 10:25:00,
2013-03-21 02:30:00,28.4,8.8,29.85,NNW,339,0.0,0.0,43,0.00,,---,0.00,VWS V13.00,2013-03-21 10:30:00,
2013-03-21 02:35:00,28.2,8.6,29.85,NNW,348,0.0,0.0,43,0.00,,---,0.00,VWS V13.00,2013-03-21 10:35:00,
2013-03-21 02:40:00,28.0,8.4,29.85,NNE,23,0.0,0.0,43,0.00,,---,0.00,VWS V13.00,2013-03-21 10:40:00,
2013-03-21 02:45:00,28.0,8.4,29.85,SSE,152,0.0,0.0,43,0.00,,---,0.00,VWS V13.00,2013-03-21 10:45:00,
2013-03-21 02:50:00,28.0,8.4,29.88,ENE,78,0.0,0.0,43,0.00,,---,0.00,VWS V13.00,2013-03-21 10:50:00,
2013-03-21 02:55:00,28.0,8.4,29.88,South,181,0.0,0.0,43,0.00,,---,0.00,VWS V13.00,2013-03-21 10:55:00,
2013-03-21 03:00:00,28.0,8.4,29.88,SW,228,0.0,0.0,43,0.00,,---,0.00,VWS V13.00,2013-03-21 11:00:00,
2013-03-21 03:05:00,27.9,8.3,29.88,WNW,294,0.0,0.0,43,0.00,,---,0.00,VWS V13.00,2013-03-21 11:05:00,
2013-03-21 03:10:00,27.9,8.3,29.88,WNW,291,0.0,0.0,43,0.00,,---,0.00,VWS V13.00,2013-03-21 11:10:00,
2013-03-21 03:16:00,27.9,8.8,29.88,SSW,203,0.0,0.0,44,0.00,,---,0.00,VWS V13.00,2013-03-21 11:16:00,
2013-03-21 03:21:00,27.7,8.6,29.88,NW,318,0.0,0.0,44,0.00,,---,0.00,VWS V13.00,2013-03-21 11:21:00,
2013-03-21 03:26:00,27.7,8.6,29.88,NNW,343,0.0,0.0,44,0.00,,---,0.00,VWS V13.00,2013-03-21 11:26:00,
2013-03-21 03:31:00,27.5,8.5,29.88,WNW,303,0.0,0.0,44,0.00,,---,0.00,VWS V13.00,2013-03-21 11:31:00,
2013-03-21 03:36:00,27.3,8.3,29.88,NNE,17,0.0,0.0,44,0.00,,---,0.00,VWS V13.00,2013-03-21 11:36:00,
2013-03-21 03:41:00,27.1,8.6,29.88,NW,310,0.0,0.0,45,0.00,,---,0.00,VWS V13.00,2013-03-21 11:41:00,
2013-03-21 03:47:00,27.0,8.5,29.88,NW,316,0.0,0.0,45,0.00,,---,0.00,VWS V13.00,2013-03-21 11:47:00,
2013-03-21 03:52:00,27.0,8.5,29.88,WSW,243,0.0,0.0,45,0.00,,---,0.00,VWS V13.00,2013-03-21 11:52:00,
2013-03-21 03:57:00,27.0,8.5,29.88,North,353,0.0,0.0,45,0.00,,---,0.00,VWS V13.00,2013-03-21 11:57:00,
2013-03-21 04:02:00,27.0,8.5,29.88,WNW,293,0.0,0.0,45,0.00,,---,0.00,VWS V13.00,2013-03-21 12:02:00,
2013-03-21 04:07:00,26.8,8.3,29.88,NW,310,0.0,0.0,45,0.00,,---,0.00,VWS V13.00,2013-03-21 12:07:00,
2013-03-21 04:12:00,26.6,8.1,29.88,North,3,0.0,0.0,45,0.00,,---,0.00,VWS V13.00,2013-03-21 12:12:00,
2013-03-21 04:17:00,26.4,8.0,29.88,North,8,0.0,0.0,45,0.00,,---,0.00,VWS V13.00,2013-03-21 12:17:00,
2013-03-21 04:22:00,26.4,8.0,29.88,WSW,254,0.0,0.0,45,0.00,,---,0.00,VWS V13.00,2013-03-21 12:22:00,
2013-03-21 04:27:00,26.4,8.5,29.88,SW,221,0.0,0.0,46,0.00,,---,0.00,VWS V13.00,2013-03-21 12:27:00,
2013-03-21 04:32:00,26.6,8.6,29.88,North,0,0.0,0.0,46,0.00,,---,0.00,VWS V13.00,2013-03-21 12:32:00,
2013-03-21 04:37:00,26.8,8.8,29.91,NNE,19,0.0,0.0,46,0.00,,---,0.00,VWS V13.00,2013-03-21 12:37:00,
2013-03-21 04:42:00,27.0,8.9,29.91,NW,314,0.0,0.0,46,0.00,,---,0.00,VWS V13.00,2013-03-21 12:42:00,
2013-03-21 04:47:00,27.0,8.9,29.91,WNW,297,0.0,0.0,46,0.00,,---,0.00,VWS V13.00,2013-03-21 12:47:00,
2013-03-21 04:52:00,27.0,8.9,29.91,WNW,298,0.0,0.0,46,0.00,,---,0.00,VWS V13.00,2013-03-21 12:52:00,
2013-03-21 04:57:00,27.0,8.9,29.91,NW,319,0.0,0.0,46,0.00,,---,0.00,VWS V13.00,2013-03-21 12:57:00,
2013-03-21 05:02:00,27.0,8.5,29.91,NW,318,0.0,0.0,45,0.00,,---,0.00,VWS V13.00,2013-03-21 13:02:00,
2013-03-21 05:07:00,27.0,8.5,29.91,WNW,302,0.0,0.0,45,0.00,,---,0.00,VWS V13.00,2013-03-21 13:07:00,
2013-03-21 05:12:00,27.0,8.5,29.91,WNW,303,0.0,0.0,45,0.00,,---,0.00,VWS V13.00,2013-03-21 13:12:00,
2013-03-21 05:17:00,26.8,8.3,29.91,WSW,241,0.0,0.0,45,0.00,,---,0.00,VWS V13.00,2013-03-21 13:17:00,
2013-03-21 05:22:00,26.6,8.1,29.91,WNW,298,0.0,0.0,45,0.00,,---,0.00,VWS V13.00,2013-03-21 13:22:00,
2013-03-21 05:27:00,26.6,8.6,29.91,West,264,0.0,0.0,46,0.00,,---,0.00,VWS V13.00,2013-03-21 13:27:00,
2013-03-21 05:32:00,26.4,8.5,29.91,WNW,282,0.0,0.0,46,0.00,,---,0.00,VWS V13.00,2013-03-21 13:32:00,
2013-03-21 05:37:00,26.2,8.3,29.91,NNW,328,0.0,0.0,46,0.00,,---,0.00,VWS V13.00,2013-03-21 13:37:00,
2013-03-21 05:42:00,26.2,8.3,29.91,SSW,211,0.0,0.0,46,0.00,,---,0.00,VWS V13.00,2013-03-21 13:42:00,
2013-03-21 05:47:00,26.1,8.1,29.91,NNW,329,0.0,0.0,46,0.00,,---,0.00,VWS V13.00,2013-03-21 13:47:00,
2013-03-21 05:52:00,25.9,8.0,29.91,NNW,328,0.0,0.0,46,0.00,,---,0.00,VWS V13.00,2013-03-21 13:52:00,
2013-03-21 05:57:00,25.7,7.8,29.91,NW,305,0.0,0.0,46,0.00,,---,0.00,VWS V13.00,2013-03-21 13:57:00,
2013-03-21 06:02:00,25.5,7.6,29.91,NW,306,0.0,0.0,46,0.00,,---,0.00,VWS V13.00,2013-03-21 14:02:00,
2013-03-21 06:07:00,25.5,7.6,29.91,NW,318,0.0,0.0,46,0.00,,---,0.00,VWS V13.00,2013-03-21 14:07:00,
2013-03-21 06:12:00,25.3,7.5,29.91,NW,317,0.0,0.0,46,0.00,,---,0.00,VWS V13.00,2013-03-21 14:12:00,
2013-03-21 06:17:00,25.2,7.3,29.91,NW,315,0.0,0.0,46,0.00,,---,0.00,VWS V13.00,2013-03-21 14:17:00,
2013-03-21 06:22:00,25.0,7.1,29.91,NW,304,0.0,0.0,46,0.00,,---,0.00,VWS V13.00,2013-03-21 14:22:00,
2013-03-21 06:27:00,25.0,7.1,29.91,North,8,0.0,0.0,46,0.00,,---,0.00,VWS V13.00,2013-03-21 14:27:00,
2013-03-21 06:32:00,25.0,6.7,29.91,North,353,0.0,0.0,45,0.00,,---,0.00,VWS V13.00,2013-03-21 14:32:00,
2013-03-21 06:37:00,24.8,7.0,29.91,NNW,336,0.0,0.0,46,0.00,,---,0.00,VWS V13.00,2013-03-21 14:37:00,
2013-03-21 06:42:00,24.8,7.0,29.91,NNW,348,0.0,0.0,46,0.00,,---,0.00,VWS V13.00,2013-03-21 14:42:00,
2013-03-21 06:47:00,24.6,6.8,29.91,NW,316,0.0,0.0,46,0.00,,---,0.00,VWS V13.00,2013-03-21 14:47:00,
2013-03-21 06:52:00,24.6,6.8,29.91,NW,324,0.0,0.0,46,0.00,,---,0.00,VWS V13.00,2013-03-21 14:52:00,
2013-03-21 06:57:00,24.6,6.8,29.91,SW,228,0.0,0.0,46,0.00,,---,0.00,VWS V13.00,2013-03-21 14:57:00,
2013-03-21 07:02:00,24.4,6.6,29.91,WSW,246,0.0,0.0,46,0.00,,---,0.00,VWS V13.00,2013-03-21 15:02:00,
2013-03-21 07:07:00,24.4,6.6,29.91,North,0,0.0,0.0,46,0.00,,---,0.00,VWS V13.00,2013-03-21 15:07:00,
2013-03-21 07:12:00,24.3,6.0,29.91,North,8,0.0,0.0,45,0.00,,---,0.00,VWS V13.00,2013-03-21 15:12:00,
2013-03-21 07:17:00,24.3,6.5,29.91,East,79,0.0,0.0,46,0.00,,---,0.00,VWS V13.00,2013-03-21 15:17:00,
2013-03-21 07:22:00,24.3,6.5,29.91,East,84,0.0,0.0,46,0.00,,---,0.00,VWS V13.00,2013-03-21 15:22:00,
2013-03-21 07:27:00,24.1,6.3,29.91,East,84,0.0,0.0,46,0.00,,---,0.00,VWS V13.00,2013-03-21 15:27:00,
2013-03-21 07:32:00,23.7,6.0,29.91,East,84,0.0,0.0,46,0.00,,---,0.00,VWS V13.00,2013-03-21 15:32:00,
2013-03-21 07:37:00,23.5,5.8,29.91,NNE,16,0.0,0.0,46,0.00,,---,0.00,VWS V13.00,2013-03-21 15:37:00,
2013-03-21 07:42:00,23.7,6.0,29.91,NNE,16,0.0,0.0,46,0.00,,---,0.00,VWS V13.00,2013-03-21 15:42:00,
2013-03-21 07:47:00,23.5,6.3,29.91,NNE,16,0.0,0.0,47,0.00,,---,0.00,VWS V13.00,2013-03-21 15:47:00,
2013-03-21 07:52:00,23.5,6.3,29.91,NNE,16,0.0,0.0,47,0.00,,---,0.00,VWS V13.00,2013-03-21 15:52:00,
2013-03-21 07:57:00,23.5,6.8,29.91,NNE,16,0.0,0.0,48,0.00,,---,0.00,VWS V13.00,2013-03-21 15:57:00,
2013-03-21 08:02:00,23.5,7.2,29.91,NNE,16,0.0,0.0,49,0.00,,---,0.00,VWS V13.00,2013-03-21 16:02:00,
2013-03-21 08:07:00,23.7,8.2,29.94,NNE,16,0.0,0.0,51,0.00,,---,0.00,VWS V13.00,2013-03-21 16:07:00,
2013-03-21 08:12:00,23.5,7.7,29.94,NNE,16,0.0,0.0,50,0.00,,---,0.00,VWS V13.00,2013-03-21 16:12:00,
2013-03-21 08:17:00,23.4,7.5,29.94,NNE,16,0.0,0.0,50,0.00,,---,0.00,VWS V13.00,2013-03-21 16:17:00,
2013-03-21 08:23:00,23.5,7.7,29.94,NNE,16,0.0,0.0,50,0.00,,---,0.00,VWS V13.00,2013-03-21 16:23:00,
2013-03-21 08:28:00,23.2,7.3,29.94,NNE,16,0.0,0.0,50,0.00,,---,0.00,VWS V13.00,2013-03-21 16:28:00,
2013-03-21 08:33:00,23.2,7.3,29.94,NNE,16,0.0,0.0,50,0.00,,---,0.00,VWS V13.00,2013-03-21 16:33:00,
2013-03-21 08:37:00,23.0,7.6,29.94,NNE,16,0.0,0.0,51,0.00,,---,0.00,VWS V13.00,2013-03-21 16:37:00,
2013-03-21 08:43:00,23.0,7.6,29.94,NNE,16,0.0,0.0,51,0.00,,---,0.00,VWS V13.00,2013-03-21 16:43:00,
2013-03-21 08:48:00,22.8,7.4,29.94,NNE,16,0.0,0.0,51,0.00,,---,0.00,VWS V13.00,2013-03-21 16:48:00,
2013-03-21 08:53:00,22.8,7.4,29.94,NNE,16,0.0,0.0,51,0.00,,---,0.00,VWS V13.00,2013-03-21 16:53:00,
2013-03-21 08:58:00,23.0,8.0,29.94,NNE,17,0.0,0.0,52,0.00,,---,0.00,VWS V13.00,2013-03-21 16:58:00,
2013-03-21 09:03:00,23.4,8.4,29.94,ENE,59,0.0,0.0,52,0.00,,---,0.00,VWS V13.00,2013-03-21 17:03:00,
2013-03-21 09:08:00,23.4,8.4,29.94,NNE,21,0.0,0.0,52,0.00,,---,0.00,VWS V13.00,2013-03-21 17:08:00,
2013-03-21 09:13:00,25.3,8.4,29.94,NNE,21,0.0,0.0,48,0.00,,---,0.00,VWS V13.00,2013-03-21 17:13:00,
2013-03-21 09:18:00,25.7,8.7,29.94,NNE,21,0.0,0.0,48,0.00,,---,0.00,VWS V13.00,2013-03-21 17:18:00,
2013-03-21 09:23:00,26.4,8.9,29.94,NNE,24,0.0,0.0,47,0.00,,---,0.00,VWS V13.00,2013-03-21 17:23:00,
2013-03-21 09:28:00,27.0,8.9,29.94,NW,324,0.0,0.0,46,0.00,,---,0.00,VWS V13.00,2013-03-21 17:28:00,
2013-03-21 09:33:00,27.1,8.6,29.94,NNE,29,0.0,0.0,45,0.00,,---,0.00,VWS V13.00,2013-03-21 17:33:00,
2013-03-21 09:38:00,28.0,7.9,29.94,NNE,15,0.0,0.0,42,0.00,,---,0.00,VWS V13.00,2013-03-21 17:38:00,
2013-03-21 09:43:00,28.2,8.6,29.94,NW,308,0.0,0.0,43,0.00,,---,0.00,VWS V13.00,2013-03-21 17:43:00,
2013-03-21 09:48:00,28.9,8.7,29.94,North,2,0.0,0.0,42,0.00,,---,0.00,VWS V13.00,2013-03-21 17:48:00,
2013-03-21 09:53:00,28.9,8.7,29.94,North,353,0.0,0.0,42,0.00,,---,0.00,VWS V13.00,2013-03-21 17:53:00,
2013-03-21 09:58:00,29.7,9.4,29.94,North,353,0.0,0.0,42,0.00,,---,0.00,VWS V13.00,2013-03-21 17:58:00,
2013-03-21 10:03:00,30.4,9.5,29.94,NW,316,0.0,0.0,41,0.00,,---,0.00,VWS V13.00,2013-03-21 18:03:00,
2013-03-21 10:08:00,30.6,9.7,29.94,WNW,293,0.0,0.0,41,0.00,,---,0.00,VWS V13.00,2013-03-21 18:08:00,
2013-03-21 10:13:00,30.9,9.4,29.94,North,357,0.0,0.0,40,0.00,,---,0.00,VWS V13.00,2013-03-21 18:13:00,
2013-03-21 10:18:00,30.9,9.4,29.94,North,357,0.0,0.0,40,0.00,,---,0.00,VWS V13.00,2013-03-21 18:18:00,
2013-03-21 10:23:00,30.9,9.4,29.97,North,357,0.0,0.0,40,0.00,,---,0.00,VWS V13.00,2013-03-21 18:23:00,
2013-03-21 10:28:00,31.5,10.5,29.97,North,357,0.0,0.0,41,0.00,,---,0.00,VWS V13.00,2013-03-21 18:28:00,
2013-03-21 10:33:00,31.8,10.8,29.97,SW,234,0.0,0.0,41,0.00,,---,0.00,VWS V13.00,2013-03-21 18:33:00,
2013-03-21 10:38:00,32.7,11.1,29.97,SSE,168,0.0,0.0,40,0.00,,---,0.00,VWS V13.00,2013-03-21 18:38:00,
2013-03-21 10:43:00,32.9,11.2,29.97,ESE,115,0.0,0.0,40,0.00,,---,0.00,VWS V13.00,2013-03-21 18:43:00,
2013-03-21 10:48:00,32.9,11.2,29.97,SSE,149,0.0,0.0,40,0.00,,---,0.00,VWS V13.00,2013-03-21 18:48:00,
2013-03-21 10:53:00,32.7,11.1,29.97,SW,224,0.0,0.0,40,0.00,,---,0.00,VWS V13.00,2013-03-21 18:53:00,
2013-03-21 10:58:00,32.7,11.1,29.97,South,189,0.0,0.0,40,0.00,,---,0.00,VWS V13.00,2013-03-21 18:58:00,
2013-03-21 11:03:00,32.7,11.1,29.97,South,190,0.0,0.0,40,0.00,,---,0.00,VWS V13.00,2013-03-21 19:03:00,
2013-03-21 11:08:00,34.0,12.2,29.97,SW,227,0.0,0.0,40,0.00,,---,0.00,VWS V13.00,2013-03-21 19:08:00,
2013-03-21 11:13:00,34.0,12.2,29.97,West,270,0.0,0.0,40,0.00,,---,0.00,VWS V13.00,2013-03-21 19:13:00,
2013-03-21 11:18:00,35.1,13.2,29.97,WSW,238,0.0,0.0,40,0.00,,---,0.00,VWS V13.00,2013-03-21 19:18:00,
2013-03-21 11:23:00,35.1,13.2,29.97,WSW,240,0.0,0.0,40,0.00,,---,0.00,VWS V13.00,2013-03-21 19:23:00,
2013-03-21 11:28:00,35.1,13.2,29.97,WSW,238,0.0,0.0,40,0.00,,---,0.00,VWS V13.00,2013-03-21 19:28:00,
2013-03-21 11:33:00,36.3,13.8,29.97,WSW,240,0.0,0.0,39,0.00,,---,0.00,VWS V13.00,2013-03-21 19:33:00,
2013-03-21 11:38:00,36.3,13.8,29.97,WSW,240,0.0,0.0,39,0.00,,---,0.00,VWS V13.00,2013-03-21 19:38:00,
2013-03-21 11:43:00,36.3,13.8,29.97,WNW,301,0.0,0.0,39,0.00,,---,0.00,VWS V13.00,2013-03-21 19:43:00,
2013-03-21 11:48:00,36.3,13.8,29.97,NW,304,0.0,0.0,39,0.00,,---,0.00,VWS V13.00,2013-03-21 19:48:00,
2013-03-21 11:53:00,36.3,13.8,29.97,WNW,282,0.0,0.0,39,0.00,,---,0.00,VWS V13.00,2013-03-21 19:53:00,
2013-03-21 11:58:00,36.5,13.9,29.97,NW,314,0.0,0.0,39,0.00,,---,0.00,VWS V13.00,2013-03-21 19:58:00,
2013-03-21 12:03:00,36.9,14.2,29.97,SW,236,0.0,0.0,39,0.00,,---,0.00,VWS V13.00,2013-03-21 20:03:00,
2013-03-21 12:08:00,37.6,13.1,29.97,SSW,212,0.0,0.0,36,0.00,,---,0.00,VWS V13.00,2013-03-21 20:08:00,
2013-03-21 12:13:00,37.6,13.1,29.97,WNW,299,0.0,0.0,36,0.00,,---,0.00,VWS V13.00,2013-03-21 20:13:00,
2013-03-21 12:18:00,37.6,13.1,29.97,West,276,0.0,0.0,36,0.00,,---,0.00,VWS V13.00,2013-03-21 20:18:00,
2013-03-21 12:23:00,38.5,15.7,29.97,SW,235,0.0,0.0,39,0.00,,---,0.00,VWS V13.00,2013-03-21 20:23:00,
2013-03-21 12:28:00,38.8,15.4,29.97,SSW,204,0.0,0.0,38,0.00,,---,0.00,VWS V13.00,2013-03-21 20:28:00,
2013-03-21 12:33:00,38.5,12.6,29.97,SSW,205,0.0,0.0,34,0.00,,---,0.00,VWS V13.00,2013-03-21 20:33:00,
2013-03-21 12:38:00,38.5,12.6,29.97,South,183,0.0,0.0,34,0.00,,---,0.00,VWS V13.00,2013-03-21 20:38:00,
2013-03-21 12:43:00,38.5,12.6,29.97,South,189,0.0,0.0,34,0.00,,---,0.00,VWS V13.00,2013-03-21 20:43:00,
2013-03-21 12:48:00,39.2,15.1,29.97,SSW,201,0.0,0.0,37,0.00,,---,0.00,VWS V13.00,2013-03-21 20:48:00,
2013-03-21 12:53:00,39.0,13.7,29.97,SW,216,0.0,0.0,35,0.00,,---,0.00,VWS V13.00,2013-03-21 20:53:00,
2013-03-21 12:58:00,39.2,15.1,29.97,SSW,210,0.0,0.0,37,0.00,,---,0.00,VWS V13.00,2013-03-21 20:58:00,
2013-03-21 13:03:00,39.2,15.7,29.97,SSW,197,0.0,0.0,38,0.00,,---,0.00,VWS V13.00,2013-03-21 21:03:00,
2013-03-21 13:08:00,39.2,15.7,29.97,SW,232,0.0,0.0,38,0.00,,---,0.00,VWS V13.00,2013-03-21 21:08:00,
2013-03-21 13:13:00,38.7,14.0,29.97,SSW,203,0.0,0.0,36,0.00,,---,0.00,VWS V13.00,2013-03-21 21:13:00,
2013-03-21 13:18:00,38.7,14.0,29.97,SSW,203,0.0,0.0,36,0.00,,---,0.00,VWS V13.00,2013-03-21 21:18:00,
2013-03-21 13:23:00,38.7,14.0,29.97,SW,221,0.0,0.0,36,0.00,,---,0.00,VWS V13.00,2013-03-21 21:23:00,
2013-03-21 13:28:00,39.7,16.2,29.97,SW,229,0.0,0.0,38,0.00,,---,0.00,VWS V13.00,2013-03-21 21:28:00,
2013-03-21 13:33:00,39.7,16.2,29.97,SW,226,0.0,0.0,38,0.00,,---,0.00,VWS V13.00,2013-03-21 21:33:00,
2013-03-21 13:38:00,40.6,17.0,29.97,WSW,248,0.0,0.0,38,0.00,,---,0.00,VWS V13.00,2013-03-21 21:38:00,
2013-03-21 13:43:00,40.6,17.0,29.97,South,173,0.0,0.0,38,0.00,,---,0.00,VWS V13.00,2013-03-21 21:43:00,
2013-03-21 13:49:00,40.6,17.0,29.97,SSE,168,0.0,0.0,38,0.00,,---,0.00,VWS V13.00,2013-03-21 21:49:00,
2013-03-21 13:54:00,39.9,16.4,29.97,WSW,239,0.0,0.0,38,0.00,,---,0.00,VWS V13.00,2013-03-21 21:54:00,
2013-03-21 13:59:00,40.3,15.5,29.97,SW,214,0.0,0.0,36,0.00,,---,0.00,VWS V13.00,2013-03-21 21:59:00,
2013-03-21 14:04:00,40.1,14.7,29.97,South,172,0.0,0.0,35,0.00,,---,0.00,VWS V13.00,2013-03-21 22:04:00,
2013-03-21 14:09:00,40.1,14.7,29.97,SSW,208,0.0,0.0,35,0.00,,---,0.00,VWS V13.00,2013-03-21 22:09:00,
2013-03-21 14:14:00,40.1,14.7,29.97,SSW,209,0.0,0.0,35,0.00,,---,0.00,VWS V13.00,2013-03-21 22:14:00,
2013-03-21 14:19:00,40.3,16.1,29.97,SSW,195,0.0,0.0,37,0.00,,---,0.00,VWS V13.00,2013-03-21 22:19:00,
2013-03-21 14:24:00,39.4,14.7,29.97,South,191,0.0,0.0,36,0.00,,---,0.00,VWS V13.00,2013-03-21 22:24:00,
2013-03-21 14:29:00,39.0,15.0,29.97,South,187,0.0,0.0,37,0.00,,---,0.00,VWS V13.00,2013-03-21 22:29:00,
2013-03-21 14:34:00,39.0,15.0,29.97,SSW,197,0.0,0.0,37,0.00,,---,0.00,VWS V13.00,2013-03-21 22:34:00,
2013-03-21 14:39:00,39.0,15.0,29.97,SSW,207,0.0,0.0,37,0.00,,---,0.00,VWS V13.00,2013-03-21 22:39:00,
2013-03-21 14:44:00,40.6,17.6,29.97,SSW,205,0.0,0.0,39,0.00,,---,0.00,VWS V13.00,2013-03-21 22:44:00,
2013-03-21 14:49:00,40.1,16.5,29.97,SSW,201,0.0,0.0,38,0.00,,---,0.00,VWS V13.00,2013-03-21 22:49:00,
2013-03-21 14:54:00,40.6,16.4,29.97,SW,230,0.0,0.0,37,0.00,,---,0.00,VWS V13.00,2013-03-21 22:54:00,
2013-03-21 14:59:00,40.6,16.4,29.97,WSW,242,0.0,0.0,37,0.00,,---,0.00,VWS V13.00,2013-03-21 22:59:00,
2013-03-21 15:04:00,40.6,16.4,29.97,WSW,248,0.0,0.0,37,0.00,,---,0.00,VWS V13.00,2013-03-21 23:04:00,
2013-03-21 15:09:00,41.7,14.8,29.94,SSW,209,0.0,0.0,33,0.00,,---,0.00,VWS V13.00,2013-03-21 23:09:00,
2013-03-21 15:14:00,41.9,15.6,29.94,SW,230,0.0,0.0,34,0.00,,---,0.00,VWS V13.00,2013-03-21 23:14:00,
2013-03-21 15:19:00,41.2,14.3,29.94,SSW,200,0.0,0.0,33,0.00,,---,0.00,VWS V13.00,2013-03-21 23:19:00,
2013-03-21 15:24:00,41.2,15.0,29.94,SW,216,0.0,0.0,34,0.00,,---,0.00,VWS V13.00,2013-03-21 23:24:00,
2013-03-21 15:29:00,41.2,15.0,29.94,South,184,0.0,0.0,34,0.00,,---,0.00,VWS V13.00,2013-03-21 23:29:00,
2013-03-21 15:34:00,41.9,16.9,29.94,SW,220,0.0,0.0,36,0.00,,---,0.00,VWS V13.00,2013-03-21 23:34:00,
2013-03-21 15:39:00,41.9,16.9,29.94,SSW,195,0.0,0.0,36,0.00,,---,0.00,VWS V13.00,2013-03-21 23:39:00,
2013-03-21 15:44:00,41.9,16.9,29.94,SSW,210,0.0,0.0,36,0.00,,---,0.00,VWS V13.00,2013-03-21 23:44:00,
2013-03-21 15:49:00,41.2,16.3,29.94,SW,221,0.0,0.0,36,0.00,,---,0.00,VWS V13.00,2013-03-21 23:49:00,
2013-03-21 15:54:00,41.7,16.1,29.94,SW,218,8.3,8.3,35,0.00,,---,0.00,VWS V13.00,2013-03-21 23:54:00,
2013-03-21 15:59:00,41.2,14.3,29.94,SW,220,5.8,8.3,33,0.00,,---,0.00,VWS V13.00,2013-03-21 23:59:00,
2013-03-21 16:04:00,41.2,14.3,29.94,South,187,0.0,6.3,33,0.00,,---,0.00,VWS V13.00,2013-03-22 00:04:00,
2013-03-21 16:09:00,41.2,14.3,29.94,South,189,0.0,6.3,33,0.00,,---,0.00,VWS V13.00,2013-03-22 00:09:00,
2013-03-21 16:14:00,41.7,16.8,29.94,SSE,165,0.0,6.3,36,0.00,,---,0.00,VWS V13.00,2013-03-22 00:14:00,
2013-03-21 16:19:00,41.7,16.8,29.94,SSW,213,0.0,6.3,36,0.00,,---,0.00,VWS V13.00,2013-03-22 00:19:00,
2013-03-21 16:24:00,40.6,17.0,29.94,WSW,240,0.0,0.0,38,0.00,,---,0.00,VWS V13.00,2013-03-22 00:24:00,
2013-03-21 16:29:00,40.6,17.0,29.94,SSW,203,0.0,0.0,38,0.00,,---,0.00,VWS V13.00,2013-03-22 00:29:00,
2013-03-21 16:34:00,40.6,17.0,29.94,South,188,0.0,0.0,38,0.00,,---,0.00,VWS V13.00,2013-03-22 00:34:00,
2013-03-21 16:39:00,40.1,16.5,29.94,SSW,198,0.0,0.0,38,0.00,,---,0.00,VWS V13.00,2013-03-22 00:39:00,
2013-03-21 16:44:00,40.1,16.5,29.91,West,277,0.0,0.0,38,0.00,,---,0.00,VWS V13.00,2013-03-22 00:44:00,
2013-03-21 16:49:00,39.7,15.0,29.91,SSW,211,0.0,0.0,36,0.00,,---,0.00,VWS V13.00,2013-03-22 00:49:00,
2013-03-21 16:54:00,39.7,15.0,29.91,WSW,237,0.0,0.0,36,0.00,,---,0.00,VWS V13.00,2013-03-22 00:54:00,
2013-03-21 16:59:00,39.7,15.0,29.91,SW,214,0.0,0.0,36,0.00,,---,0.00,VWS V13.00,2013-03-22 00:59:00,
2013-03-21 17:04:00,39.2,16.3,29.91,SSW,196,0.0,0.0,39,0.00,,---,0.00,VWS V13.00,2013-03-22 01:04:00,
2013-03-21 17:09:00,39.2,15.7,29.91,SSW,205,0.0,0.0,38,0.00,,---,0.00,VWS V13.00,2013-03-22 01:09:00,
2013-03-21 17:14:00,38.8,14.8,29.91,South,187,0.0,0.0,37,0.00,,---,0.00,VWS V13.00,2013-03-22 01:14:00,
2013-03-21 17:19:00,38.8,14.8,29.91,WSW,245,0.0,0.0,37,0.00,,---,0.00,VWS V13.00,2013-03-22 01:19:00,
2013-03-21 17:24:00,38.8,14.8,29.91,SW,226,0.0,0.0,37,0.00,,---,0.00,VWS V13.00,2013-03-22 01:24:00,
2013-03-21 17:29:00,39.2,14.5,29.91,SSW,211,0.0,0.0,36,0.00,,---,0.00,VWS V13.00,2013-03-22 01:29:00,
2013-03-21 17:34:00,39.2,13.9,29.91,SW,235,0.0,0.0,35,0.00,,---,0.00,VWS V13.00,2013-03-22 01:34:00,
2013-03-21 17:39:00,39.2,13.9,29.91,SW,220,0.0,0.0,35,0.00,,---,0.00,VWS V13.00,2013-03-22 01:39:00,
2013-03-21 17:44:00,39.2,13.9,29.91,SW,216,0.0,0.0,35,0.00,,---,0.00,VWS V13.00,2013-03-22 01:44:00,
2013-03-21 17:49:00,39.2,13.9,29.91,SW,232,0.0,0.0,35,0.00,,---,0.00,VWS V13.00,2013-03-22 01:49:00,
2013-03-21 17:54:00,39.2,13.9,29.91,SSW,194,0.0,0.0,35,0.00,,---,0.00,VWS V13.00,2013-03-22 01:54:00,
2013-03-21 17:59:00,38.7,14.0,29.91,SSW,208,0.0,0.0,36,0.00,,---,0.00,VWS V13.00,2013-03-22 01:59:00,
2013-03-21 18:04:00,38.7,14.0,29.91,SSW,195,0.0,0.0,36,0.00,,---,0.00,VWS V13.00,2013-03-22 02:04:00,
2013-03-21 18:09:00,37.9,12.1,29.91,South,187,0.0,0.0,34,0.00,,---,0.00,VWS V13.00,2013-03-22 02:09:00,
2013-03-21 18:14:00,37.9,12.7,29.91,WSW,237,0.0,0.0,35,0.00,,---,0.00,VWS V13.00,2013-03-22 02:14:00,
2013-03-21 18:19:00,37.6,11.8,29.91,South,183,0.0,0.0,34,0.00,,---,0.00,VWS V13.00,2013-03-22 02:19:00,
2013-03-21 18:24:00,37.6,12.4,29.91,SSW,198,0.0,0.0,35,0.00,,---,0.00,VWS V13.00,2013-03-22 02:24:00,
2013-03-21 18:29:00,37.6,12.4,29.91,WSW,253,0.0,0.0,35,0.00,,---,0.00,VWS V13.00,2013-03-22 02:29:00,
2013-03-21 18:34:00,37.2,12.1,29.91,WSW,253,0.0,0.0,35,0.00,,---,0.00,VWS V13.00,2013-03-22 02:34:00,
2013-03-21 18:39:00,37.2,12.1,29.91,SSW,205,0.0,3.6,35,0.00,,---,0.00,VWS V13.00,2013-03-22 02:39:00,
2013-03-21 18:44:00,37.0,12.6,29.91,SW,218,7.6,7.6,36,0.00,,---,0.00,VWS V13.00,2013-03-22 02:44:00,
2013-03-21 18:49:00,37.0,12.6,29.91,SW,214,0.0,7.6,36,0.00,,---,0.00,VWS V13.00,2013-03-22 02:49:00,
2013-03-21 18:54:00,37.0,12.6,29.91,SW,234,0.0,7.6,36,0.00,,---,0.00,VWS V13.00,2013-03-22 02:54:00,
2013-03-21 18:59:00,37.0,11.9,29.88,WSW,249,0.0,7.6,35,0.00,,---,0.00,VWS V13.00,2013-03-22 02:59:00,
2013-03-21 19:04:00,37.0,11.9,29.88,WSW,237,0.0,0.0,35,0.00,,---,0.00,VWS V13.00,2013-03-22 03:04:00,
2013-03-21 19:09:00,37.2,12.1,29.88,SW,221,0.0,0.0,35,0.00,,---,0.00,VWS V13.00,2013-03-22 03:09:00,
2013-03-21 19:14:00,37.2,12.1,29.88,SW,231,0.0,0.0,35,0.00,,---,0.00,VWS V13.00,2013-03-22 03:14:00,
2013-03-21 19:19:00,37.2,12.1,29.88,SW,222,0.0,0.0,35,0.00,,---,0.00,VWS V13.00,2013-03-22 03:19:00,
2013-03-21 19:24:00,36.9,11.1,29.88,SW,234,0.0,0.0,34,0.00,,---,0.00,VWS V13.00,2013-03-22 03:24:00,
2013-03-21 19:29:00,36.9,11.1,29.88,SW,223,0.0,0.0,34,0.00,,---,0.00,VWS V13.00,2013-03-22 03:29:00,
2013-03-21 19:34:00,36.7,11.0,29.88,WSW,245,0.0,0.0,34,0.00,,---,0.00,VWS V13.00,2013-03-22 03:34:00,
2013-03-21 19:39:00,36.7,11.0,29.88,SW,214,0.0,0.0,34,0.00,,---,0.00,VWS V13.00,2013-03-22 03:39:00,
2013-03-21 19:44:00,36.7,11.0,29.88,SW,235,0.0,0.0,34,0.00,,---,0.00,VWS V13.00,2013-03-22 03:44:00,
2013-03-21 19:49:00,36.3,11.3,29.88,WNW,292,0.0,0.0,35,0.00,,---,0.00,VWS V13.00,2013-03-22 03:49:00,
2013-03-21 19:54:00,36.1,11.1,29.88,WNW,292,0.0,0.0,35,0.00,,---,0.00,VWS V13.00,2013-03-22 03:54:00,
2013-03-21 19:59:00,36.1,11.1,29.88,SW,229,0.0,0.0,35,0.00,,---,0.00,VWS V13.00,2013-03-22 03:59:00,
2013-03-21 20:00:00,36.1,11.1,29.88,SW,229,0.0,0.0,35,0.00,,---,0.00,VWS V13.00,2013-03-22 04:00:00,
2013-03-21 20:05:00,36.1,11.1,29.88,SW,220,0.0,0.0,35,0.00,,---,0.00,VWS V13.00,2013-03-22 04:05:00,
2013-03-21 20:10:00,36.0,11.0,29.88,SSW,205,0.0,0.0,35,0.00,,---,0.00,VWS V13.00,2013-03-22 04:10:00,
2013-03-21 20:15:00,36.0,11.0,29.88,SSW,207,0.0,0.0,35,0.00,,---,0.00,VWS V13.00,2013-03-22 04:15:00,
2013-03-21 20:20:00,35.8,11.4,29.88,SSW,207,0.0,0.0,36,0.00,,---,0.00,VWS V13.00,2013-03-22 04:20:00,
2013-03-21 20:25:00,35.2,10.3,29.88,WSW,240,0.0,0.0,35,0.00,,---,0.00,VWS V13.00,2013-03-22 04:25:00,
2013-03-21 20:30:00,35.2,10.3,29.88,WSW,240,0.0,0.0,35,0.00,,---,0.00,VWS V13.00,2013-03-22 04:30:00,
2013-03-21 20:35:00,35.2,11.0,29.88,WSW,240,0.0,0.0,36,0.00,,---,0.00,VWS V13.00,2013-03-22 04:35:00,
2013-03-21 20:40:00,35.1,10.2,29.88,SSW,212,0.0,0.0,35,0.00,,---,0.00,VWS V13.00,2013-03-22 04:40:00,
2013-03-21 20:45:00,35.1,10.2,29.88,SSW,212,0.0,0.0,35,0.00,,---,0.00,VWS V13.00,2013-03-22 04:45:00,
2013-03-21 20:50:00,35.1,10.2,29.88,SW,222,0.0,0.0,35,0.00,,---,0.00,VWS V13.00,2013-03-22 04:50:00,
2013-03-21 20:55:00,34.9,10.0,29.88,SW,222,0.0,0.0,35,0.00,,---,0.00,VWS V13.00,2013-03-22 04:55:00,
2013-03-21 21:00:00,34.9,10.0,29.88,SW,222,0.0,0.0,35,0.00,,---,0.00,VWS V13.00,2013-03-22 05:00:00,
2013-03-21 21:05:00,34.7,10.5,29.88,West,273,0.0,0.0,36,0.00,,---,0.00,VWS V13.00,2013-03-22 05:05:00,
2013-03-21 21:10:00,34.7,10.5,29.88,SW,231,0.0,0.0,36,0.00,,---,0.00,VWS V13.00,2013-03-22 05:10:00,
2013-03-21 21:15:00,34.7,10.5,29.88,WSW,247,6.3,6.3,36,0.00,,---,0.00,VWS V13.00,2013-03-22 05:15:00,
2013-03-21 21:20:00,34.7,11.1,29.88,WNW,289,0.0,0.0,37,0.00,,---,0.00,VWS V13.00,2013-03-22 05:20:00,
2013-03-21 21:25:00,34.7,11.1,29.88,SW,228,6.3,6.3,37,0.00,,---,0.00,VWS V13.00,2013-03-22 05:25:00,
2013-03-21 21:30:00,34.5,10.9,29.88,West,262,3.1,6.3,37,0.00,,---,0.00,VWS V13.00,2013-03-22 05:30:00,
2013-03-21 21:35:00,34.5,10.9,29.88,SW,236,0.0,6.3,37,0.00,,---,0.00,VWS V13.00,2013-03-22 05:35:00,
2013-03-21 21:40:00,34.5,10.9,29.88,WSW,239,0.0,0.0,37,0.00,,---,0.00,VWS V13.00,2013-03-22 05:40:00,
2013-03-21 21:45:00,34.5,12.1,29.88,WSW,240,0.0,0.0,39,0.00,,---,0.00,VWS V13.00,2013-03-22 05:45:00,
2013-03-21 21:50:00,34.5,12.7,29.88,WSW,240,0.0,0.0,40,0.00,,---,0.00,VWS V13.00,2013-03-22 05:50:00,
2013-03-21 21:55:00,34.5,12.7,29.88,SW,230,0.0,0.0,40,0.00,,---,0.00,VWS V13.00,2013-03-22 05:55:00,
2013-03-21 22:00:00,34.5,12.7,29.88,SW,217,0.0,0.0,40,0.00,,---,0.00,VWS V13.00,2013-03-22 06:00:00,
2013-03-21 22:05:00,34.5,12.7,29.88,West,259,0.0,0.0,40,0.00,,---,0.00,VWS V13.00,2013-03-22 06:05:00,
2013-03-21 22:10:00,34.3,12.5,29.88,WSW,244,5.8,5.8,40,0.00,,---,0.00,VWS V13.00,2013-03-22 06:10:00,
2013-03-21 22:15:00,34.3,12.5,29.88,WSW,244,5.8,5.8,40,0.00,,---,0.00,VWS V13.00,2013-03-22 06:15:00,
2013-03-21 22:20:00,34.5,13.3,29.88,SW,231,0.0,0.0,41,0.00,,---,0.00,VWS V13.00,2013-03-22 06:20:00,
2013-03-21 22:25:00,34.5,13.3,29.88,SW,233,0.0,0.0,41,0.00,,---,0.00,VWS V13.00,2013-03-22 06:25:00,
2013-03-21 22:30:00,34.5,13.8,29.88,SW,233,0.0,0.0,42,0.00,,---,0.00,VWS V13.00,2013-03-22 06:30:00,
2013-03-21 22:35:00,34.5,13.8,29.88,SW,233,0.0,0.0,42,0.00,,---,0.00,VWS V13.00,2013-03-22 06:35:00,
2013-03-21 22:40:00,34.5,13.8,29.88,SSW,207,0.0,0.0,42,0.00,,---,0.00,VWS V13.00,2013-03-22 06:40:00,
2013-03-21 22:45:00,34.5,13.3,29.88,SW,230,0.0,0.0,41,0.00,,---,0.00,VWS V13.00,2013-03-22 06:45:00,
2013-03-21 22:50:00,34.5,13.3,29.88,SW,223,0.0,0.0,41,0.00,,---,0.00,VWS V13.00,2013-03-22 06:50:00,
2013-03-21 22:55:00,34.5,13.8,29.88,SW,223,0.0,0.0,42,0.00,,---,0.00,VWS V13.00,2013-03-22 06:55:00,
2013-03-21 23:00:00,34.5,13.8,29.88,WSW,237,0.0,0.0,42,0.00,,---,0.00,VWS V13.00,2013-03-22 07:00:00,
2013-03-21 23:05:00,34.3,13.6,29.88,West,263,0.0,0.0,42,0.00,,---,0.00,VWS V13.00,2013-03-22 07:05:00,
2013-03-21 23:10:00,34.3,13.6,29.88,WSW,238,0.0,0.0,42,0.00,,---,0.00,VWS V13.00,2013-03-22 07:10:00,
2013-03-21 23:15:00,34.3,13.6,29.88,WSW,238,0.0,0.0,42,0.00,,---,0.00,VWS V13.00,2013-03-22 07:15:00,
2013-03-21 23:20:00,34.3,13.6,29.85,West,276,0.0,0.0,42,0.00,,---,0.00,VWS V13.00,2013-03-22 07:20:00,
2013-03-21 23:25:00,34.3,13.6,29.85,WSW,238,0.0,10.1,42,0.00,,---,0.00,VWS V13.00,2013-03-22 07:25:00,
2013-03-21 23:30:00,34.5,13.8,29.85,West,272,8.3,10.1,42,0.00,,---,0.00,VWS V13.00,2013-03-22 07:30:00,
2013-03-21 23:35:00,34.5,13.8,29.88,SW,236,9.6,10.1,42,0.00,,---,0.00,VWS V13.00,2013-03-22 07:35:00,
2013-03-21 23:40:00,34.5,14.3,29.88,SW,236,9.6,9.6,43,0.00,,---,0.00,VWS V13.00,2013-03-22 07:40:00,
2013-03-21 23:45:00,34.5,14.3,29.88,SW,217,0.0,9.6,43,0.00,,---,0.00,VWS V13.00,2013-03-22 07:45:00,
2013-03-21 23:50:00,34.5,14.3,29.88,SSW,201,0.0,9.6,43,0.00,,---,0.00,VWS V13.00,2013-03-22 07:50:00,
2013-03-21 23:55:00,34.5,14.3,29.88,SW,231,0.0,9.6,43,0.00,,---,0.00,VWS V13.00,2013-03-22 07:55:00,